EW9345 Weather Reports


time (UTC)temp
F
wind
direction
speed
knots
gust
knots
rain 1hr
in
rain 24hr
in
rain mn
in
humidity
%
barometer
mb
20260510230816 66 278 0.0 0.0 0.00 0.00 0.00 69 1011.9
20260510230314 66 302 0.0 0.0 0.00 0.00 0.00 71 1011.9
20260510225817 65 152 0.0 0.0 0.00 0.00 0.00 74 1011.8
20260510225307 65 250 0.0 0.0 0.00 0.00 0.00 78 1011.8
20260510224801 65 263 0.0 0.0 0.00 0.00 0.00 77 1011.8
20260510224254 65 115 0.0 0.0 0.00 0.00 0.00 78 1011.7
20260510223744 64 173 0.0 0.0 0.00 0.00 0.00 79 1011.7
20260510223238 64 115 0.0 0.0 0.00 0.00 0.00 80 1011.6
20260510222732 64 109 0.0 0.0 0.00 0.00 0.00 80 1011.6
20260510222227 64 113 0.0 0.0 0.00 0.00 0.00 79 1011.6
20260510221723 64 82 0.0 0.0 0.00 0.00 0.00 78 1011.8
20260510221221 65 132 0.0 0.0 0.00 0.00 0.00 76 1011.6
20260510220721 65 116 0.0 0.0 0.00 0.00 0.00 74 1011.5
20260510220222 66 105 0.0 0.0 0.00 0.00 0.00 72 1011.5
20260510215720 66 264 0.0 0.0 0.00 0.00 0.00 72 1011.5
20260510215216 66 115 0.0 0.0 0.00 0.01 0.00 71 1011.6
20260510214718 67 104 0.0 0.0 0.00 0.03 0.00 67 1011.6
20260510214218 69 309 0.0 0.0 0.00 0.05 0.00 60 1011.5
20260510213719 69 283 0.0 0.0 0.00 0.06 0.00 60 1011.6
20260510213216 70 259 0.0 0.0 0.00 0.06 0.00 58 1011.5
20260510213014 70 262 0.0 0.0 0.00 0.06 0.00 57 1011.4
20260510212213 70 297 0.0 0.0 0.00 0.07 0.00 57 1011.4
20260510211713 70 304 0.0 0.0 0.00 0.09 0.00 56 1011.3
20260510211214 71 285 0.0 0.0 0.00 0.09 0.00 55 1011.2
20260510210712 71 285 0.0 0.0 0.00 0.09 0.00 54 1011.0
20260510210212 71 307 0.0 0.0 0.00 0.09 0.00 53 1010.9
20260510205712 71 279 0.0 0.0 0.00 0.09 0.00 52 1010.9
20260510205211 71 240 0.0 0.0 0.00 0.09 0.00 52 1010.8
20260510204710 72 257 0.0 0.0 0.00 0.09 0.00 50 1010.8
20260510204209 72 276 0.0 0.0 0.00 0.09 0.00 50 1010.8
20260510203710 72 286 0.0 0.0 0.00 0.09 0.00 49 1010.7
20260510203206 73 269 0.0 0.0 0.00 0.09 0.00 48 1010.7
20260510202704 73 307 0.0 0.0 0.00 0.10 0.00 48 1010.7
20260510202454 73 250 0.0 0.0 0.00 0.10 0.00 49 1010.6
20260510201703 74 300 0.0 0.0 0.00 0.10 0.00 49 1010.5
20260510201203 74 304 0.0 0.0 0.00 0.10 0.00 49 1010.4
20260510200703 74 247 0.0 0.0 0.00 0.10 0.00 49 1010.5
20260510200205 74 276 0.0 0.0 0.00 0.10 0.00 50 1010.6
20260510195705 74 281 0.0 0.0 0.00 0.10 0.00 51 1010.6
20260510195159 74 252 0.0 0.0 0.00 0.10 0.00 50 1010.6
20260510194945 74 291 0.0 0.0 0.00 0.10 0.00 49 1010.7
20260510194157 74 314 0.0 0.0 0.00 0.10 0.00 50 1010.7
20260510193658 75 298 0.0 0.0 0.00 0.10 0.00 51 1010.6
20260510193157 74 206 0.0 0.0 0.00 0.10 0.00 51 1010.6
20260510192657 74 304 0.0 0.0 0.00 0.10 0.00 52 1010.7
20260510192455 74 300 0.0 0.0 0.00 0.10 0.00 52 1010.8
20260510191657 75 281 0.0 0.0 0.00 0.10 0.00 51 1010.9
20260510191156 75 290 0.0 0.0 0.00 0.10 0.00 53 1010.8
20260510190655 74 303 0.0 0.0 0.00 0.10 0.00 53 1010.8
20260510190544 74 281 0.0 0.0 0.00 0.10 0.00 56 1010.8
20260510190229 74 254 0.0 0.0 0.00 0.10 0.00 55 1010.8
20260510185156 73 276 0.0 0.0 0.00 0.11 0.00 57 1010.9
20260510184649 73 309 0.0 0.0 0.00 0.11 0.00 57 1011.0
20260510184142 73 257 0.0 0.0 0.00 0.11 0.00 56 1010.9
20260510183642 74 288 0.0 0.0 0.00 0.11 0.00 56 1010.9
20260510183142 74 279 0.0 0.0 0.00 0.12 0.00 57 1011.0
20260510182641 73 314 0.0 0.0 0.00 0.12 0.00 57 1011.0
20260510182437 73 297 0.0 0.0 0.00 0.12 0.00 57 1011.0
20260510181639 73 244 0.0 0.0 0.00 0.12 0.00 57 1010.9
20260510181140 73 193 0.0 0.0 0.00 0.12 0.00 58 1010.9
20260510180638 73 307 0.0 0.0 0.00 0.12 0.00 61 1011.0
20260510180140 73 249 0.0 0.0 0.00 0.12 0.00 62 1011.1
20260510175640 72 341 0.0 0.0 0.00 0.12 0.00 65 1010.9
20260510175140 71 98 0.0 0.0 0.00 0.12 0.00 64 1010.9
20260510174641 72 99 0.0 0.0 0.00 0.12 0.00 62 1010.8
20260510174141 72 96 0.0 0.0 0.00 0.12 0.00 64 1010.9
20260510173642 72 49 0.0 0.0 0.00 0.12 0.00 65 1010.8
20260510173141 72 51 0.0 0.0 0.00 0.12 0.00 63 1010.8
20260510172642 72 74 0.0 0.0 0.00 0.12 0.00 64 1010.9
20260510172141 71 214 0.0 0.0 0.00 0.12 0.00 66 1010.9
20260510171642 70 115 0.0 0.0 0.00 0.12 0.00 66 1010.9
20260510171137 70 121 0.0 0.0 0.00 0.12 0.00 66 1011.0
20260510170820 69 93 0.0 0.0 0.00 0.12 0.00 69 1011.1
20260510170815 68 270 0.0 0.0 0.00 0.12 0.00 69 1011.1
20260510170743 70 82 0.0 0.0 0.00 0.12 0.00 68 1011.1
20260510165425 68 120 0.0 0.0 0.00 0.12 0.00 71 1011.2
20260510164636 67 66 0.0 0.0 0.00 0.12 0.00 73 1011.3
20260510164137 67 122 0.0 0.0 0.00 0.12 0.00 72 1011.4
20260510163638 67 113 0.0 0.0 0.00 0.12 0.00 74 1011.4
20260510163130 67 109 0.0 0.0 0.00 0.12 0.00 73 1011.5
20260510162633 66 174 0.0 0.0 0.00 0.12 0.00 75 1011.6
20260510162133 65 122 0.0 0.0 0.00 0.12 0.00 77 1011.6
20260510161633 65 122 0.0 0.0 0.00 0.12 0.00 74 1011.7
20260510161133 65 83 0.0 0.0 0.00 0.12 0.00 75 1011.6
20260510160926 65 115 0.0 0.0 0.00 0.12 0.00 75 1011.7
20260510160134 65 91 0.0 0.0 0.00 0.12 0.00 75 1011.5
20260510155634 65 186 0.0 0.0 0.00 0.12 0.00 77 1011.5
20260510155131 64 25 0.0 0.0 0.00 0.12 0.00 78 1011.6
20260510154630 64 199 0.0 0.0 0.00 0.12 0.00 78 1011.7
20260510154129 64 220 0.0 0.0 0.00 0.12 0.00 79 1011.8
20260510153630 63 153 0.0 0.0 0.00 0.12 0.00 80 1011.8
20260510153128 62 106 0.0 0.0 0.00 0.12 0.00 82 1011.9
20260510152623 62 71 0.0 0.0 0.00 0.12 0.00 81 1011.8
20260510152119 61 211 0.0 0.0 0.00 0.12 0.00 83 1011.8
20260510151616 61 139 0.0 0.0 0.00 0.12 0.00 82 1011.8
20260510151118 61 165 0.0 0.0 0.00 0.12 0.00 83 1011.8
20260510150724 60 117 0.0 0.0 0.00 0.12 0.00 84 1011.9
20260510150659 61 108 0.0 0.0 0.00 0.12 0.00 83 1011.9
20260510145613 60 86 0.0 0.0 0.00 0.12 0.00 85 1011.9
20260510145506 59 103 0.0 0.0 0.00 0.12 0.00 86 1011.9
20260510145144 59 93 0.0 0.0 0.00 0.12 0.00 87 1012.0
20260510144059 59 127 0.0 0.0 0.00 0.12 0.00 86 1011.9
20260510143558 58 80 0.0 0.0 0.00 0.12 0.00 87 1011.9
20260510143058 58 146 0.0 0.0 0.00 0.12 0.00 88 1011.8
20260510142559 58 115 0.0 0.0 0.00 0.12 0.00 87 1011.9
20260510142433 58 215 0.0 0.0 0.00 0.12 0.00 87 1011.8
20260510142428 58 88 0.0 0.0 0.00 0.12 0.00 87 1011.8
20260510141054 58 181 0.0 0.0 0.00 0.12 0.00 88 1011.8
20260510140556 58 145 0.0 0.0 0.00 0.12 0.00 88 1011.8
20260510140054 58 179 0.0 0.0 0.00 0.12 0.00 87 1011.7
20260510135555 58 103 0.0 0.0 0.00 0.12 0.00 87 1011.6
20260510135056 58 96 0.0 0.0 0.00 0.12 0.00 89 1011.6
20260510134637 57 111 0.0 0.0 0.00 0.12 0.00 89 1011.6
20260510134620 58 156 0.0 0.0 0.00 0.12 0.00 89 1011.6
20260510133837 57 118 0.0 0.0 0.00 0.12 0.00 89 1011.6
20260510133331 57 98 0.0 0.0 0.00 0.12 0.00 90 1011.6
20260510132821 57 162 0.0 0.0 0.00 0.12 0.00 90 1011.6
20260510132314 57 297 0.0 0.0 0.00 0.12 0.00 91 1011.6
20260510131808 57 120 0.0 0.0 0.00 0.12 0.00 91 1011.5
20260510131008 57 117 0.0 0.0 0.00 0.12 0.00 91 1011.4
20260510130501 57 156 0.0 0.0 0.00 0.12 0.00 93 1011.4
20260510125955 56 105 0.0 0.0 0.00 0.12 0.00 93 1011.3
20260510125443 56 89 0.0 0.0 0.00 0.12 0.00 93 1011.1
20260510124937 56 87 0.0 0.0 0.00 0.12 0.00 93 1011.3
20260510124431 56 276 0.0 0.0 0.00 0.12 0.00 93 1011.4
20260510124213 56 218 0.0 0.0 0.00 0.12 0.00 94 1011.3
20260510123707 56 200 0.0 0.0 0.00 0.12 0.00 94 1011.1
20260510122908 56 123 0.0 0.0 0.00 0.12 0.00 94 1011.0
20260510122359 56 172 0.0 0.0 0.00 0.12 0.00 94 1011.0
20260510121853 56 172 0.0 0.0 0.00 0.12 0.00 95 1010.9
20260510121347 55 241 0.0 0.0 0.00 0.12 0.00 95 1010.8
20260510120837 55 241 0.0 0.0 0.00 0.12 0.00 95 1010.9
20260510120331 55 241 0.0 0.0 0.00 0.12 0.00 95 1010.8
20260510115825 55 241 0.0 0.0 0.00 0.12 0.00 95 1010.9
20260510115314 55 250 0.0 0.0 0.00 0.12 0.00 95 1010.8
20260510115103 55 31 0.0 0.0 0.00 0.12 0.00 95 1010.6
20260510114303 55 31 0.0 0.0 0.00 0.12 0.00 95 1010.6
20260510113753 55 31 0.0 0.0 0.00 0.12 0.00 95 1010.8
20260510113247 54 31 0.0 0.0 0.00 0.12 0.00 95 1010.7
20260510112740 54 31 0.0 0.0 0.00 0.12 0.00 96 1010.7
20260510112230 54 31 0.0 0.0 0.00 0.12 0.00 96 1010.6
20260510112021 54 31 0.0 0.0 0.00 0.12 0.00 96 1010.4
20260510111218 54 31 0.0 0.0 0.00 0.12 0.00 96 1010.2
20260510110709 54 46 0.0 0.0 0.00 0.12 0.00 96 1010.1
20260510110204 54 46 0.0 0.0 0.00 0.12 0.00 96 1010.1
20260510105704 53 46 0.0 0.0 0.00 0.12 0.00 96 1010.0
20260510105454 53 46 0.0 0.0 0.00 0.12 0.00 96 1010.1
20260510104705 0 0.0 0.0 0.00 0.12 0.00 1010.0
20260510104427 0 0.0 0.0 0.00 0.12 0.00 1010.0
20260510103657 0 0.0 0.0 0.00 0.12 0.00 1010.1
20260510103102 0 0.0 0.0 0.00 0.12 0.00 1010.2
20260510102828 0 0.0 0.0 0.00 0.12 0.00 1010.2
20260510102005 0 0.0 0.0 0.00 0.12 0.00 1010.2
20260510101449 0 0.0 0.0 0.00 0.12 0.00 1010.2
20260510100947 0 0.0 0.0 0.00 0.12 0.00 1010.2
20260510100356 0 0.0 0.0 0.00 0.12 0.00 1010.2
20260510095806 0 0.0 0.0 0.00 0.12 0.00 1010.2
20260510095306 0 0.0 0.0 0.00 0.12 0.00 1010.3
20260510094751 0 0.0 0.0 0.00 0.12 0.00 1010.3
20260510094205 0 0.0 0.0 0.00 0.12 0.00 1010.3
20260510093921 0 0.0 0.0 0.00 0.12 0.00 1010.3
20260510093107 0 0.0 0.0 0.00 0.12 0.00 1010.4
20260510092553 0 0.0 0.0 0.00 0.12 0.00 1010.5
20260510092047 0 0.0 0.0 0.00 0.12 0.00 1010.6
20260510091505 0 0.0 0.0 0.00 0.12 0.00 1010.5
20260510090905 0 0.0 0.0 0.00 0.12 0.00 1010.6
20260510090634 0 0.0 0.0 0.00 0.12 0.00 1010.6
20260510085856 0 0.0 0.0 0.00 0.12 0.00 1010.6
20260510085353 53 0.0 0.0 0.00 0.12 0.00 95 1010.5
20260510085027 53 310 0.0 0.0 0.00 0.12 0.00 95 1010.6
20260510084429 53 310 0.0 0.0 0.00 0.12 0.00 95 1010.4
20260510083655 53 310 0.0 0.0 0.00 0.12 0.00 95 1010.3
20260510083446 53 304 0.0 0.0 0.00 0.12 0.00 96 1010.6
20260510082651 53 306 0.0 0.0 0.00 0.12 0.00 96 1010.4
20260510082145 53 309 0.0 0.0 0.00 0.12 0.00 96 1010.5
20260510081635 53 20 0.0 0.0 0.00 0.12 0.00 96 1010.0
20260510081418 53 20 0.0 0.0 0.00 0.12 0.00 96 1009.9
20260510080914 53 20 0.0 0.0 0.00 0.12 0.00 96 1009.9
20260510080113 53 20 0.0 0.0 0.00 0.12 0.00 96 1009.7
20260510075854 53 20 0.0 0.0 0.00 0.12 0.00 95 1009.7
20260510075102 53 20 0.0 0.0 0.00 0.12 0.00 95 1009.7
20260510074551 53 20 0.0 0.0 0.00 0.12 0.00 96 1009.7
20260510074045 53 18 0.0 0.0 0.00 0.12 0.00 95 1009.7
20260510073539 53 18 0.0 0.0 0.00 0.12 0.00 95 1009.5
20260510073036 53 18 0.0 0.0 0.00 0.12 0.00 95 1009.6
20260510072535 53 19 0.0 0.0 0.00 0.12 0.00 95 1009.6
20260510072036 53 18 0.0 0.0 0.00 0.12 0.00 95 1009.6
20260510071534 53 53 0.0 0.0 0.00 0.12 0.00 95 1009.6
20260510071033 53 20 0.0 0.0 0.00 0.12 0.00 95 1009.6
20260510070530 53 7 0.0 0.0 0.00 0.12 0.00 96 1009.6
20260510070029 53 11 0.0 0.0 0.00 0.12 0.00 95 1009.7
20260510065525 53 11 0.0 0.0 0.00 0.12 0.00 95 1009.8
20260510065026 53 11 0.0 0.0 0.00 0.12 0.00 95 1009.8
20260510064528 53 359 0.0 0.0 0.00 0.12 0.00 95 1009.8
20260510064025 52 359 0.0 0.0 0.00 0.12 0.00 96 1009.7
20260510063523 52 4 0.0 0.0 0.00 0.12 0.00 95 1009.7
20260510063025 52 94 0.0 0.0 0.00 0.12 0.00 95 1009.6
20260510062523 52 94 0.0 0.0 0.00 0.12 0.00 95 1009.5
20260510062021 52 94 0.0 0.0 0.00 0.12 0.00 95 1009.4
20260510061610 52 94 0.0 0.0 0.00 0.12 0.00 96 1009.3
20260510061548 52 94 0.0 0.0 0.00 0.12 0.00 95 1009.3
20260510060506 52 94 0.0 0.0 0.00 0.12 0.00 96 1009.4
20260510060002 52 94 0.0 0.0 0.00 0.12 0.00 96 1009.4
20260510055552 51 94 0.0 0.0 0.00 0.12 0.00 96 1009.5
20260510055530 52 94 0.0 0.0 0.00 0.12 0.00 96 1009.4
20260510054750 51 94 0.0 0.0 0.00 0.12 0.00 96 1009.5
20260510054246 51 94 0.0 0.0 0.00 0.12 0.00 96 1009.5
20260510053456 51 94 0.0 0.0 0.00 0.12 0.00 95 1009.5
20260510053247 51 94 0.0 0.0 0.00 0.12 0.00 95 1009.5
20260510052451 51 94 0.0 0.0 0.00 0.12 0.00 95 1009.4
20260510051951 51 94 0.0 0.0 0.00 0.12 0.00 95 1009.4
20260510051452 51 94 0.0 0.0 0.00 0.12 0.00 95 1009.5
20260510051046 51 94 0.0 0.0 0.00 0.12 0.00 95 1009.6
20260510051023 51 94 0.0 0.0 0.00 0.12 0.00 95 1009.6
20260510045949 51 94 0.0 0.0 0.00 0.12 0.00 95 1009.6
20260510045449 51 94 0.0 0.0 0.00 0.12 0.00 95 1009.6
20260510044950 51 94 0.0 0.0 0.00 0.12 0.00 95 1009.7
20260510044450 51 94 0.0 0.0 0.00 0.12 0.00 95 1009.7
20260510044240 51 94 0.0 0.0 0.00 0.12 0.00 95 1009.8
20260510043451 51 94 0.0 0.0 0.00 0.12 0.00 95 1009.7
20260510043238 51 94 0.0 0.0 0.00 0.12 0.00 95 1009.7
20260510042451 51 94 0.0 0.0 0.00 0.12 0.00 95 1009.7
20260510041949 51 94 0.0 0.0 0.00 0.12 0.00 95 1009.6
20260510041449 51 94 0.0 0.0 0.00 0.12 0.00 95 1009.7
20260510040947 52 94 0.0 0.0 0.00 0.12 0.00 95 1009.7
20260510040738 52 94 0.0 0.0 0.00 0.12 0.00 95 1009.6
20260510035950 52 94 0.0 0.0 0.00 0.12 0.12 95 1009.6
20260510035452 52 94 0.0 0.0 0.00 0.12 0.12 95 1009.6
20260510035238 52 94 0.0 0.0 0.00 0.12 0.12 95 1009.5
20260510034451 52 94 0.0 0.0 0.00 0.12 0.12 95 1009.4
20260510033950 52 94 0.0 0.0 0.00 0.12 0.12 95 1009.4
20260510033451 52 94 0.0 0.0 0.00 0.12 0.12 95 1009.4
20260510032952 52 94 0.0 0.0 0.00 0.12 0.12 95 1009.3
20260510032450 52 94 0.0 0.0 0.00 0.12 0.12 95 1009.4
20260510031950 52 94 0.0 0.0 0.00 0.12 0.12 95 1009.3
20260510031451 53 94 0.0 0.0 0.00 0.12 0.12 95 1009.3
20260510030950 53 94 0.0 0.0 0.00 0.12 0.12 95 1009.3
20260510030450 53 94 0.0 0.0 0.00 0.12 0.12 94 1009.3
20260510025951 53 94 0.0 0.0 0.00 0.12 0.12 94 1009.3
20260510025737 53 94 0.0 0.0 0.00 0.12 0.12 94 1009.3
20260510024948 53 94 0.0 0.0 0.00 0.12 0.12 94 1009.3
20260510024447 53 94 0.0 0.0 0.00 0.12 0.12 94 1009.4
20260510023948 53 94 0.0 0.0 0.00 0.12 0.12 94 1009.4
20260510023447 53 93 0.0 0.0 0.00 0.12 0.12 94 1009.4
20260510023234 53 93 0.0 0.0 0.00 0.12 0.12 94 1009.4
20260510022447 53 93 0.0 0.0 0.00 0.12 0.12 94 1009.5
20260510021947 53 93 0.0 0.0 0.00 0.12 0.12 94 1009.4
20260510021449 53 93 0.0 0.0 0.00 0.12 0.12 94 1009.3
20260510020942 53 93 0.0 0.0 0.00 0.12 0.12 94 1009.3
20260510020442 53 93 0.0 0.0 0.00 0.12 0.12 94 1009.4
20260510020239 53 93 0.0 0.0 0.00 0.12 0.12 94 1009.4
20260510015440 53 93 0.0 0.0 0.00 0.12 0.12 94 1009.4
20260510015231 54 93 0.0 0.0 0.00 0.12 0.12 94 1009.3
20260510014439 54 93 0.0 0.0 0.00 0.12 0.12 94 1009.2
20260510013933 54 93 0.0 0.0 0.00 0.12 0.12 94 1009.3
20260510013530 54 93 0.0 0.0 0.00 0.12 0.12 94 1009.4
20260510013507 54 93 0.0 0.0 0.00 0.12 0.12 94 1009.3
20260510012427 54 93 0.0 0.0 0.00 0.12 0.12 94 1009.4
20260510011925 54 93 0.0 0.0 0.00 0.12 0.12 93 1009.2
20260510011726 54 93 0.0 0.0 0.00 0.12 0.12 93 1009.1
20260510010921 54 93 0.0 0.0 0.00 0.12 0.12 93 1009.1
20260510010421 54 93 0.0 0.0 0.00 0.12 0.12 93 1009.0
20260510005919 54 93 0.0 0.0 0.00 0.12 0.12 93 1009.0
20260510005421 54 93 0.0 0.0 0.00 0.12 0.12 93 1008.9
20260510004910 54 93 0.0 0.0 0.00 0.12 0.12 93 1008.9
20260510004405 55 93 0.0 0.0 0.00 0.12 0.12 93 1008.9
20260510004145 55 93 0.0 0.0 0.00 0.12 0.12 93 1008.8
20260510003638 55 93 0.0 0.0 0.00 0.12 0.12 93 1008.8
20260510002922 55 93 0.0 0.0 0.00 0.12 0.12 92 1008.8
20260510002907 55 93 0.0 0.0 0.00 0.12 0.12 92 1008.8
20260510001903 55 93 0.0 0.0 0.00 0.12 0.12 92 1008.7
20260510001848 55 93 0.0 0.0 0.00 0.12 0.12 92 1008.7
20260510000814 55 0 0.0 0.0 0.00 0.12 0.12 92 1008.7
20260510000552 55 0 0.0 0.0 0.00 0.12 0.12 92 1008.7
20260509235759 56 0 0.0 0.0 0.00 0.12 0.12 92 1008.5
20260509235252 56 0 0.0 0.0 0.00 0.12 0.12 92 1008.5
20260509234742 56 0 0.0 0.0 0.00 0.12 0.12 92 1008.5
20260509234236 56 0 0.0 0.0 0.00 0.12 0.12 92 1008.5
20260509233730 56 0 0.0 0.0 0.00 0.12 0.12 92 1008.5
20260509233220 56 0 0.0 0.0 0.00 0.12 0.12 93 1008.5
20260509232714 56 0 0.0 0.0 0.00 0.12 0.12 93 1008.5
20260509232209 56 0 0.0 0.0 0.00 0.12 0.12 94 1008.5
20260509231736 56 0 0.0 0.0 0.00 0.12 0.12 93 1008.5
20260509231722 56 0 0.0 0.0 0.00 0.12 0.12 93 1008.5